Regional Weather Roundup
Issued by NWS

Home | Current Version | Previous Version | Graphics & Text | Print | Product List | Glossary On
Versions: 1 2 3 4 5 6 7 8 9 10 11 12 13 14 15 16 17 18 19 20 21 22 23 24 25 26 27 28 29 30 31 32 33 34 35 36 37 38 39 40 41 42 43 44 45 46 47 48 49 50
000
ASUS43 KMPX 300701
RWRMN
WEATHER ROUNDUP FOR MINNESOTA
NATIONAL WEATHER SERVICE TWIN CITIES/CHANHASSEN MN
100 AM CST FRI JAN 30 2015


NOTE: "FAIR" INDICATES FEW OR NO CLOUDS BELOW 12,000 FEET WITH NO
SIGNIFICANT WEATHER AND/OR OBSTRUCTIONS TO VISIBILITY. N/A MEANS
CURRENT SKY AND/OR WEATHER CONDITIONS ARE NOT AVAILABLE.

MNZ060>063-068>070-300800-
   Twin Cities Metro

CITY           SKY/WX    TMP DP  RH WIND       PRES   REMARKS
TWIN CITIES    PTCLDY    14   5  67 NW8       30.56R WCI   3
ST PAUL        CLEAR     14   6  70 NW9       30.58R WCI   2
CRYSTAL        CLEAR     15   7  70 NW10      30.55R WCI   2
BLAINE         CLEAR     14   7  73 NW7       30.55R WCI   4
LAKEVILLE      CLEAR     10   5  79 CALM      30.54S
EDEN PRAIRIE   CLEAR     14   7  73 NW9       30.54S WCI   2
SOUTH ST PAUL  CLEAR     15   6  67 NW5       30.56R WCI   7
LAKE ELMO      FAIR      12   7  79 CALM      30.55S
$$
MNZ001>005-007-008-013>017-022>024-027-028-300800-
   Northwest Minnesota

CITY           SKY/WX    TMP DP  RH WIND       PRES   REMARKS
BEMIDJI        PTCLDY    -1  -4  87 SW3       30.50F
HALLOCK        CLOUDY     3  -2  78 SE3       30.53S
ROSEAU         MOCLDY     0  -6  78 S3        30.51F
WARROAD        PTCLDY    -4  -8  84 CALM      30.51F
THIEF RVR FALL MOCLDY     1  -2  85 SE5       30.51F WCI  -8
CROOKSTON      PTCLDY     5   0  78 SE8       30.54F WCI  -8
FOSSTON        PTCLDY     0  -6  78 CALM      30.52F
DETROIT LAKES  FAIR       3   1  92 CALM      30.52F
MOORHEAD       PTCLDY     9   5  85 CALM      30.56F
PARK RAPIDS    CLOUDY     4   0  83 CALM      30.50F
MAHNOMEN       FAIR       2  -2  83 NE3       30.52F
$$
MNZ006-009>011-018-025>026-300800-
   North Central Minnesota

CITY           SKY/WX    TMP DP  RH WIND       PRES   REMARKS
BAUDETTE       PTCLDY    -5 -10  79 CALM      30.50S
FLAG ISLAND    MOCLDY    -6  -9  84 W3        30.50F
INTL FALLS     PTCLDY   -17 -19  91 W5        30.49S WCI -30
WASKISH        PTCLDY    -2  -6  84 CALM      30.52S
BIG FORK       FAIR      -9 -15  77 CALM      30.49S
LONGVILLE      PTCLDY     0  -4  85 CALM      30.52S
GRAND RAPIDS   PTCLDY     1  -4  78 NW6       30.49R WCI -10
CRANE LAKE     CLOUDY     0  -4  85 W6        30.51R WCI -12
ORR            PTCLDY    -6  -9  84 CALM      30.45S
COOK           PTCLDY    -6  -8  92 CALM      30.48R
WALKER         FAIR      -1  -4  85 W5        30.52F WCI -11
$$
MNZ012-019>021-037-300800-
   Northeast Minnesota

CITY           SKY/WX    TMP DP  RH WIND       PRES   REMARKS
DULUTH         PTCLDY     4  -2  76 VRB3      30.45R
ELY            CLOUDY     3  -2  78 NW5       30.44S WCI  -6
HIBBING        PTCLDY    -6 -12  75 CALM      30.48R
EVELETH        PTCLDY     1  -4  78 CALM      30.48S
DULUTH HARBOR  PTCLDY     9   1  72 W9        30.54R WCI  -5
TWO HARBORS    PTCLDY     7   0  72 NW3       30.46S
SILVER BAY     PTCLDY     9   1  72 CALM      30.45S
GRAND MARAIS     N/A      2  -5  72 W5        30.50S WCI  -8
G MARAIS ARPRT CLEAR     -2  -9  71 NW7       30.37R WCI -16
$$
MNZ029>031-032-039>041-046>048-054>057-064-300800-
   West Central Minnesota

CITY           SKY/WX    TMP DP  RH WIND       PRES   REMARKS
FERGUS FALLS   PTCLDY     7   0  72 CALM      30.58F
WHEATON        CLEAR      9   5  85 E5        30.57F WCI   0
MORRIS         CLEAR     10   5  79 N5        30.54F WCI   2
ALEXANDRIA     CLEAR      6   2  83 CALM      30.52F
ELBOW LAKE     FAIR       7   3  83 CALM      30.54F
WADENA         PTCLDY     3   0  85 CALM      30.52F
GLENWOOD       FAIR       7   3  85 N3        30.53F
APPLETON       CLEAR     12   9  85 NE6       30.56F WCI   3
BENSON         CLEAR      9   3  78 N3        30.56F
ORTONVILLE     CLEAR     12   7  79 NE3       30.55F
MADISON        CLOUDY    19  14  79 NE6       30.56F WCI  11
WILLMAR        FAIR      12   7  79 NW5       30.56F WCI   4
$$
MNZ033>034-036-042>043-049>051-058-059-300800-
   Central Minnesota

CITY           SKY/WX    TMP DP  RH WIND       PRES   REMARKS
ST CLOUD       FAIR      10   5  80 NW8       30.56R WCI  -2
SAUK CENTRE    FAIR       7   3  82 N5        30.54F WCI  -2
PAYNESVILLE    CLEAR      8   5  88 W6        30.55F WCI  -2
AITKIN         MIX PCPN   9   1  72 CALM      30.52S
PINE RIVER     PTCLDY     3   0  85 CALM      30.55S
BRAINERD       CLEAR      5   0  79 NW6       30.53F WCI  -6
STAPLES        PTCLDY     3   1  92 NW3       30.53F
LONG PRAIRIE   FAIR       7   3  85 NW5       30.53F WCI  -2
LITTLE FALLS   PTCLDY     9   3  78 CALM      30.55F
LITCHFIELD     CLEAR     12  10  92 NW5       30.55F WCI   4
BUFFALO        CLEAR     12   7  79 NW6       30.57S WCI   3
MAPLE LAKE     CLEAR     13   9  84 NW8       30.56F WCI   1
$$
MNZ037-044-045-052-053-300800-
   East Central Minnesota

CITY           SKY/WX    TMP DP  RH WIND       PRES   REMARKS
PRINCETON      CLEAR     10   7  85 NW5       30.55R WCI   2
MORA           CLEAR      9   1  72 NW7       30.56R WCI  -3
CAMBRIDGE      CLEAR     10   1  67 CALM      30.54R
RUSH CITY      CLEAR     10   3  75 NW3       30.55R
MOOSE LAKE     CLEAR      5   0  78 NW5       30.51R WCI  -4
HINCKLEY       FAIR       9   3  78 CALM      30.54R
CLOQUET        PTCLDY     1  -2  85 NW8       30.48R WCI -12
MCGREGOR       MOCLDY     5   1  85 NW3       30.53S
$$
MNZ071>073-080-081-089-090-097-098-300800-
   Southwest Minnesota

CITY           SKY/WX    TMP DP  RH WIND       PRES   REMARKS
MONTEVIDEO     CLEAR     10   9  92 NE8       30.56F WCI  -1
GRANITE FALLS  CLEAR     13  10  87 N5        30.57F WCI   5
CANBY          PTCLDY    17  12  82 NW3       30.56S
MARSHALL       CLOUDY    16  10  79 NE7       30.56S WCI   6
REDWOOD FALLS  CLEAR     14  10  84 N6        30.55F WCI   5
OLIVIA         CLEAR     14   9  79 NW8       30.55F WCI   3
PIPESTONE      CLOUDY    19  16  86 CALM      30.50F
WINDOM         CLEAR     16  12  86 N7        30.53F WCI   6
WORTHINGTON    CLOUDY    18  12  79 N7        30.53S WCI   8
JACKSON        CLEAR     18  12  79 N7        30.53S WCI   8
TRACY          CLOUDY    18  14  84 N6        30.53F WCI  10
SLAYTON        CLOUDY    18  13  84 CALM      30.53R
$$
MNZ065>067-074>077-082>085-091>093-300800-
   South Central Minnesota

CITY           SKY/WX    TMP DP  RH WIND       PRES   REMARKS
MANKATO        CLEAR     16   7  67 NW9       30.55F WCI   4
NEW ULM        CLEAR     12   9  85 NW10      30.56F WCI  -1
ST JAMES       CLEAR     16  10  79 NW12      30.56F WCI   3
FAIRMONT       CLEAR     16   9  73 NW14      30.53S WCI   1
GLENCOE        CLEAR     15  11  84 NW10      30.56S WCI   2
FARIBAULT      CLEAR     14   7  73 NW5       30.54S WCI   6
OWATONNA       CLEAR     14   7  73 NW7       30.52S WCI   4
WASECA         CLEAR     14  10  85 NW8       30.55S WCI   3
ALBERT LEA     CLEAR     16  12  86 NW7       30.52R WCI   6
$$
MNZ078>079-086>088-094>096-300800-
   Southeast Minnesota

CITY           SKY/WX    TMP DP  RH WIND       PRES   REMARKS
ROCHESTER      CLEAR     13   5  70 N13       30.49R WCI  -2
RED WING       CLEAR     12   5  73 NW3       30.54S
STANTON        CLEAR     16   7  67 N5        30.53S WCI   9
DODGE CENTER   PTCLDY    12   7  79 N8        30.49S WCI   1
WINONA         CLEAR     18  10  73 NW8       30.53R WCI   7
AUSTIN         CLEAR     16   9  73 N8        30.51R WCI   5
PRESTON        CLEAR     13   7  77 N12       30.48S WCI  -1
$$
ABBREVIATIONS USED IN REMARKS
   TC - TEMPERATURES IN CELSIUS
  WCI - WIND CHILL INDEX
   HX - HEAT INDEX
  VSB - VISIBILITY
$$


USA.gov is the U.S. government's official web portal to all federal, state and local government web resources and services.